Location: Newark
(9.4667°S, 159.8167°E)
Time: 01:33:24
(UTC+00:00)

Courier 1B Rocket - Pass Details

Date: 27 November 2019
Orbit: 920 x 1202 km, 28.2° (Epoch: 05 December)

Event Time Altitude Azimuth Distance (km) Brightness Sun altitude
Rises 16:37:44 0° 230° (SW) 3,950 - -30.2°
Exits shadow 16:39:43 - 223° (SW) 3,376 7.7 -29.7°
Reaches altitude 10° 16:41:22 10° 215° (SW) 2,938 7.4 -29.4°
Maximum altitude 16:46:38 21° 167° (SSE) 2,135 7.2 -28.3°
Drops below altitude 10° 16:51:39 10° 119° (ESE) 2,778 8.4 -27.2°
Sets 16:54:57 0° 103° (ESE) 3,678 9.2 -26.5°
